Location: Br�ttisellen
(47.4227°N, 8.6287°E)
Time: 22:41:11
(UTC+00:00)

ASTEX 1 - Pass Details

Date: 09 April 2020
Orbit: 720 x 744 km, 92.7° (Epoch: 23 May)

Event Time Altitude Azimuth Distance (km) Brightness Sun altitude
Exits shadow 21:50:00 53° 333° (NNW) 912 4.1 -30.6°
Drops below altitude 10° 21:53:50 10° 351° (N) 2,250 6.7 -30.9°
Sets 21:56:09 0° 353° (N) 3,173 7.7 -31.0°
